Clovis, NM

4:08 AM MDT on April 26, 2017 (GMT -0600)
Clovis Municipal

Weather History for KCVN - December, 2013

Change the Weather History Date:

Saturday, December 14, 2013

  Actual Average Record
Temperature  
Mean Temperature 36 °F -  
Max Temperature 50 °F 48 °F 73 °F (2010)
Min Temperature 23 °F 24 °F 5 °F (1917)
Degree Days  
Heating Degree Days 28    
Moisture  
Dew Point 17 °F    
Average Humidity 49    
Maximum Humidity 64    
Minimum Humidity 30    
Precipitation  
Precipitation 0.00 in - - ()
Sea Level Pressure  
Sea Level Pressure 30.25 in    
Wind  
Wind Speed 17 mph (NNW)    
Max Wind Speed 30 mph    
Max Gust Speed 37 mph    
Visibility 10 miles    
Events      
Averages and records for this station are not official NWS values.
T = Trace of Precipitation, MM = Missing Value Source: NWS Daily Summary

Daily Weather History Graph

Daily Weather History Graph

Search for Another Location

Airport or City:

Trip Planner

Search our weather history database for the weather conditions in past years. The results will help you decide how hot, cold, wet, or windy it might be!

Date:

Astronomy

Dec. 14, 2013 Rise Set
Actual Time 6:50 AM MST 4:43 PM MST
Civil Twilight 6:23 AM MST 5:11 PM MST
Nautical Twilight 5:51 AM MST 5:42 PM MST
Astronomical Twilight 5:21 AM MST 6:13 PM MST
Moon 3:02 PM MST (12/14) 4:18 AM MST (12/14)
Length of Visible Light 10h 48m
Length of Day
9h 52m
Waxing Gibbous, 94% of the Moon is Illuminated
Dec 14
Waxing Gibbous
Dec 17
Full
Dec 25
Last Quarter
Jan 1
New
Jan 7
First Quarter

Hourly Weather History & Observations

Time (MST) Temp. Windchill Dew Point Humidity Pressure Visibility Wind Dir Wind Speed Gust Speed Precip Events Conditions
12:15 AM 33.8 °F 23.2 °F 14.0 °F 44% 30.02 in 10.0 mi North 17.3 mph - N/A   Clear
12:35 AM 33.8 °F 22.2 °F 15.8 °F 48% 30.02 in 10.0 mi North 20.7 mph - N/A   Clear
12:55 AM 33.8 °F 22.5 °F 15.8 °F 48% 30.03 in 10.0 mi North 19.6 mph 25.3 mph N/A   Clear
1:15 AM 33.8 °F 21.9 °F 15.8 °F 48% 30.04 in 10.0 mi North 21.9 mph - N/A   Clear
1:35 AM 33.8 °F 22.2 °F 15.8 °F 48% 30.06 in 10.0 mi North 20.7 mph - N/A   Clear
1:55 AM 33.8 °F 22.8 °F 15.8 °F 48% 30.06 in 10.0 mi North 18.4 mph - N/A   Clear
2:15 AM 33.8 °F 23.2 °F 15.8 °F 48% 30.08 in 10.0 mi North 17.3 mph - N/A   Clear
2:35 AM 32.0 °F 21.2 °F 15.8 °F 51% 30.09 in 10.0 mi North 16.1 mph - N/A   Clear
2:55 AM 32.0 °F 21.6 °F 15.8 °F 51% 30.09 in 10.0 mi North 15.0 mph - N/A   Clear
3:15 AM 32.0 °F 21.2 °F 15.8 °F 51% 30.10 in 10.0 mi North 16.1 mph - N/A   Clear
3:35 AM 30.2 °F 19.3 °F 15.8 °F 55% 30.11 in 10.0 mi North 15.0 mph - N/A   Clear
3:55 AM 30.2 °F 18.9 °F 15.8 °F 55% 30.12 in 10.0 mi North 16.1 mph - N/A   Clear
4:15 AM 30.2 °F 19.8 °F 15.8 °F 55% 30.13 in 10.0 mi North 13.8 mph - N/A   Clear
4:35 AM 28.4 °F 18.0 °F 15.8 °F 59% 30.14 in 10.0 mi NNW 12.7 mph - N/A   Clear
4:55 AM 28.4 °F 17.0 °F 15.8 °F 59% 30.16 in 10.0 mi NNW 15.0 mph - N/A   Clear
5:15 AM 30.2 °F 18.1 °F 17.6 °F 60% 30.16 in 10.0 mi North 18.4 mph - N/A   Clear
5:35 AM 30.2 °F 18.1 °F 17.6 °F 60% 30.17 in 10.0 mi North 18.4 mph 26.5 mph N/A   Partly Cloudy
5:55 AM 32.0 °F 19.5 °F 17.6 °F 55% 30.19 in 10.0 mi North 21.9 mph - N/A   Clear
6:15 AM 32.0 °F 19.8 °F 17.6 °F 55% 30.20 in 10.0 mi North 20.7 mph - N/A   Clear
6:35 AM 30.2 °F 18.9 °F 17.6 °F 60% 30.21 in 10.0 mi North 16.1 mph - N/A   Clear
6:55 AM 30.2 °F 18.5 °F 19.4 °F 64% 30.22 in 10.0 mi North 17.3 mph - N/A   Partly Cloudy
7:15 AM 32.0 °F 19.8 °F 19.4 °F 60% 30.23 in 10.0 mi North 20.7 mph - N/A   Mostly Cloudy
7:35 AM 33.8 °F 22.8 °F 19.4 °F 56% 30.24 in 10.0 mi North 18.4 mph 25.3 mph N/A   Overcast
7:55 AM 33.8 °F 22.5 °F 19.4 °F 56% 30.26 in 10.0 mi North 19.6 mph 25.3 mph N/A   Scattered Clouds
8:15 AM 35.6 °F 24.8 °F 21.2 °F 56% 30.27 in 10.0 mi North 19.6 mph 23.0 mph N/A   Clear
8:35 AM 37.4 °F 26.9 °F 21.2 °F 52% 30.28 in 10.0 mi North 20.7 mph 27.6 mph N/A   Scattered Clouds
8:55 AM 39.2 °F 28.7 °F 23.0 °F 52% 30.30 in 10.0 mi North 23.0 mph 29.9 mph N/A   Partly Cloudy
9:15 AM 39.2 °F 28.3 °F 23.0 °F 52% 30.31 in 10.0 mi North 25.3 mph 29.9 mph N/A   Partly Cloudy
9:35 AM 42.8 °F 32.3 °F 24.8 °F 49% 30.31 in 10.0 mi North 29.9 mph 34.5 mph N/A   Clear
9:55 AM 44.6 °F 35.9 °F 24.8 °F 46% 30.33 in 10.0 mi North 23.0 mph 33.4 mph N/A   Clear
10:15 AM 44.6 °F 35.1 °F 23.0 °F 43% 30.34 in 10.0 mi North 27.6 mph 31.1 mph N/A   Clear
10:35 AM 46.4 °F 37.7 °F 21.2 °F 37% 30.33 in 10.0 mi North 26.5 mph 32.2 mph N/A   Clear
10:55 AM 46.4 °F 37.7 °F 21.2 °F 37% 30.33 in 10.0 mi North 26.5 mph 31.1 mph N/A   Clear
11:15 AM 46.4 °F 38.1 °F 21.2 °F 37% 30.33 in 10.0 mi North 24.2 mph 29.9 mph N/A   Clear
11:35 AM 48.2 °F - 21.2 °F 34% 30.32 in 10.0 mi North 26.5 mph 33.4 mph N/A   Clear
11:55 AM 48.2 °F - 21.2 °F 34% 30.32 in 10.0 mi North 25.3 mph 31.1 mph N/A   Clear
12:15 PM 48.2 °F - 21.2 °F 34% 30.31 in 10.0 mi North 28.8 mph 33.4 mph N/A   Clear
12:35 PM 48.2 °F - 21.2 °F 34% 30.30 in 10.0 mi North 27.6 mph 36.8 mph N/A   Clear
12:55 PM 48.2 °F - 19.4 °F 32% 30.29 in 10.0 mi NNE 21.9 mph 34.5 mph N/A   Clear
1:15 PM 50.0 °F - 19.4 °F 30% 30.29 in 10.0 mi North 26.5 mph 29.9 mph N/A   Clear
1:35 PM 48.2 °F - 19.4 °F 32% 30.29 in 10.0 mi North 21.9 mph 27.6 mph N/A   Clear
1:55 PM 48.2 °F - 19.4 °F 32% 30.29 in 10.0 mi North 26.5 mph 31.1 mph N/A   Clear
2:15 PM 48.2 °F - 19.4 °F 32% 30.29 in 10.0 mi North 23.0 mph 27.6 mph N/A   Clear
2:35 PM 48.2 °F - 17.6 °F 30% 30.30 in 10.0 mi North 18.4 mph 27.6 mph N/A   Clear
2:55 PM 48.2 °F - 19.4 °F 32% 30.30 in 10.0 mi NNE 18.4 mph 24.2 mph N/A   Clear
3:15 PM 48.2 °F - 17.6 °F 30% 30.29 in 10.0 mi North 15.0 mph - N/A   Clear
3:35 PM 46.4 °F 40.4 °F 17.6 °F 32% 30.30 in 10.0 mi North 13.8 mph - N/A   Clear
3:55 PM 46.4 °F 40.7 °F 17.6 °F 32% 30.30 in 10.0 mi North 12.7 mph - N/A   Clear
4:15 PM 44.6 °F 39.7 °F 17.6 °F 34% 30.31 in 10.0 mi North 9.2 mph - N/A   Clear
4:35 PM 42.8 °F 38.6 °F 15.8 °F 34% 30.31 in 10.0 mi North 6.9 mph - N/A   Clear
4:55 PM 39.2 °F 34.2 °F 15.8 °F 39% 30.32 in 10.0 mi NNW 6.9 mph - N/A   Clear
5:15 PM 33.8 °F 29.6 °F 12.2 °F 41% 30.31 in 10.0 mi NW 4.6 mph - N/A   Clear
5:35 PM 33.8 °F 30.8 °F 15.8 °F 48% 30.31 in 10.0 mi NW 3.5 mph - N/A   Clear
5:55 PM 33.8 °F 27.7 °F 15.8 °F 48% 30.31 in 10.0 mi NNW 6.9 mph - N/A   Clear
6:15 PM 32.0 °F 26.4 °F 15.8 °F 51% 30.31 in 10.0 mi WNW 5.8 mph - N/A   Clear
6:35 PM 28.4 °F 22.2 °F 12.2 °F 51% 30.31 in 10.0 mi NW 5.8 mph - N/A   Clear
6:55 PM 30.2 °F 24.3 °F 14.0 °F 51% 30.32 in 10.0 mi NW 5.8 mph - N/A   Clear
7:15 PM 30.2 °F 25.4 °F 15.8 °F 55% 30.33 in 10.0 mi WNW 4.6 mph - N/A   Clear
7:35 PM 28.4 °F 23.3 °F 15.8 °F 59% 30.34 in 10.0 mi NW 4.6 mph - N/A   Clear
7:55 PM 26.6 °F 20.0 °F 14.0 °F 59% 30.34 in 10.0 mi WNW 5.8 mph - N/A   Clear
8:15 PM 28.4 °F 22.2 °F 14.0 °F 55% 30.34 in 10.0 mi WNW 5.8 mph - N/A   Clear
8:35 PM 26.6 °F 20.0 °F 12.2 °F 55% 30.34 in 10.0 mi West 5.8 mph - N/A   Clear
8:55 PM 24.8 °F 20.5 °F 14.0 °F 64% 30.34 in 10.0 mi West 3.5 mph - N/A   Clear
9:15 PM 24.8 °F 17.9 °F 14.0 °F 64% 30.34 in 10.0 mi West 5.8 mph - N/A   Clear
9:35 PM 24.8 °F 19.1 °F 12.2 °F 59% 30.33 in 10.0 mi WSW 4.6 mph - N/A   Clear
9:55 PM 24.8 °F 16.9 °F 14.0 °F 64% 30.33 in 10.0 mi WSW 6.9 mph - N/A   Clear
10:15 PM 26.6 °F 18.2 °F 14.0 °F 59% 30.33 in 10.0 mi WSW 8.1 mph - N/A   Clear
10:35 PM 24.8 °F 14.6 °F 14.0 °F 64% 30.32 in 10.0 mi WSW 10.4 mph - N/A   Clear
10:55 PM 28.4 °F 19.7 °F 15.8 °F 59% 30.32 in 10.0 mi WSW 9.2 mph - N/A   Clear
11:15 PM 24.8 °F 15.3 °F 12.2 °F 59% 30.32 in 10.0 mi WSW 9.2 mph - N/A   Clear
11:35 PM 23.0 °F 14.7 °F 12.2 °F 63% 30.31 in 10.0 mi WSW 6.9 mph - N/A   Clear
11:55 PM 26.6 °F 17.5 °F 15.8 °F 64% 30.31 in 10.0 mi WSW 9.2 mph - N/A   Clear